Weather Roundup
Issued by NWS Springfield, MO

Home | Current Version | Previous Version | Text Only | Print | Product List | Glossary On
Versions: 1 2 3 4 5 6 7 8 9 10 11 12 13 14 15 16 17 18 19 20 21 22 23 24 25 26 27 28 29 30 31 32 33 34 35 36 37 38 39 40 41 42 43 44 45 46 47 48 49 50
000
NZUS99 KSGF 100957
HRRSGF

HOURLY WEATHER
NATIONAL WEATHER SERVICE SPRINGFIELD MO
400 AM CST SAT DEC 10 2016

......SGF CWA......

CITY           SKY/WX    TMP DP  RH WIND       PRES   REMARKS
SPRINGFIELD    MOCLDY    24  15  68 SE7       30.47F WCI  16
JOPLIN         CLOUDY    32  19  58 S5        30.49F WCI  27
WEST PLAINS    CLOUDY    19  12  74 CALM      30.52S
ROLLA          CLOUDY    23  14  68 E8        30.50F WCI  14

......SURROUNDING SGF CWA......

CITY           SKY/WX    TMP DP  RH WIND       PRES   REMARKS
CHANUTE        CLOUDY    30  18  60 SE6       30.46F WCI  24
PARSONS        CLOUDY    31  20  63 CALM      30.47F
COFFEYVILLE    CLOUDY    31  22  69 E5        30.47F WCI  26
EMPORIA        PTCLDY    21  16  81 SE7       30.42F WCI  12
HARRISON AR    CLOUDY    28  18  66 SE5       30.49S WCI  23

......KANSAS AND MISSOURI......

CITY           SKY/WX    TMP DP  RH WIND       PRES   REMARKS
KANSAS CTY INT CLOUDY    25  12  58 SE7       30.47F WCI  17
SEDALIA        CLOUDY    27  12  53 SE6       30.51F WCI  20
ST JOSEPH      CLOUDY    26  15  63 SE5       30.48F WCI  20
ST LOUIS       CLOUDY    27  14  58 CALM      30.57F
WICHITA        CLOUDY    21  14  74 SE7       30.39F WCI  12
TOPEKA         CLOUDY    25  18  74 E3        30.46F
OLATHE         MOCLDY    23  14  68 SE3       30.47F

......TENNESSEE......

CITY           SKY/WX    TMP DP  RH WIND       PRES   REMARKS
MEMPHIS        NOT AVBL
NASHVILLE      CLEAR     21  15  78 CALM      30.59R

......ARKANSAS.......

CITY           SKY/WX    TMP DP  RH WIND       PRES   REMARKS
FAYETTEVILLE   CLOUDY    33  16  49 SW3       30.49R
FT SMITH       CLOUDY    34  21  59 E7        30.53S WCI  28
LITTLE ROCK    CLOUDY    27  26  96 CALM      30.59S

......OKLAHOMA.......

CITY           SKY/WX    TMP DP  RH WIND       PRES   REMARKS
TULSA          CLOUDY    36  18  48 S8        30.47F WCI  30
MCALESTER      CLOUDY    37  18  46 VRB5      30.49F WCI  33
OKLAHOMA CITY  CLOUDY    34  19  54 S9        30.41S WCI  27

......IOWA............

CITY           SKY/WX    TMP DP  RH WIND       PRES   REMARKS
DES MOINES     NOT AVBL
QUAD CITIES    CLOUDY    21  14  74 SW3       30.54F

......ILLINOIS........

CITY           SKY/WX    TMP DP  RH WIND       PRES   REMARKS
QUINCY         CLOUDY    23  15  71 CALM      30.54F
CHICAGO        CLOUDY    19  12  74 W10       30.49F WCI   7



USA.gov is the U.S. government's official web portal to all federal, state and local government web resources and services.